Regional Weather Roundup
Issued by NWS

Home | Current Version | Previous Version | Graphics & Text | Print | Product List | Glossary Off
Versions: 1 2 3 4 5 6 7 8 9 10 11 12 13 14 15 16 17 18 19 20 21 22 23 24 25 26 27 28 29 30 31 32 33 34 35 36 37 38 39 40 41 42 43 44 45 46 47 48 49 50

000
ASUS43 KMKX 241521
RWRWI

WISCONSIN REGIONAL WEATHER ROUNDUP
NATIONAL WEATHER SERVICE MILWAUKEE/SULLIVAN WI
1000 AM CDT FRI OCT 24 2014

NOTE: "FAIR" INDICATES FEW OR NO CLOUDS BELOW 12,000 FEET WITH NO
SIGNIFICANT WEATHER AND/OR OBSTRUCTIONS TO VISIBILITY.

WIZ001-002-006>008-014>016-023>028-241600-
NORTHWEST WISCONSIN

CITY           SKY/WX    TMP DP  RH WIND       PRES   REMARKS
SUPERIOR ARPT  MOSUNNY   50  49  97 CALM      29.86F
ASHLAND        CLOUDY    51  49  92 S7        29.90S
HAYWARD        MOSUNNY   51  47  86 S8        29.92F
SIREN          MOSUNNY   53  48  85 S12       29.88F
CUMBERLAND     CLOUDY    48  46  93 SE8       29.93S FOG
RICE LAKE      CLOUDY    50  47  92 SE8       29.95F
CHETEK         CLOUDY    49  48  97 SE9       29.95S FOG
LADYSMITH      CLOUDY    47  47  97 SE7       29.98F FOG
EAU CLAIRE     CLOUDY    50  48  93 SE9       29.96F
MENOMONIE      CLOUDY    51  50  95 SE9       29.96R FOG
NEW RICHMOND   PTSUNNY   53  51  94 SE10      29.90F
OSCEOLA        PTSUNNY   54  52  94 E8        29.92F
$$

WIZ003>005-009-010-017-018-241600-
NORTH CENTRAL WISCONSIN

CITY           SKY/WX    TMP DP  RH WIND       PRES   REMARKS
MANITOWISH WTR CLOUDY    44  44 100 S6        29.94F FOG
ARBOR VITAE    FOG       45  44  97 S7        29.96F VSB 3/4
WOODRUFF       FOG       45  44  97 S7        29.96F VSB 3/4
RHINELANDER    FOG       44  44 100 S6        29.98F VSB 3/4
EAGLE RIVER    FOG       44  44 100 CALM      29.96F VSB 1/2
LAND O LAKES   FOG       45  45 100 S5        29.96F VSB 1
PHILLIPS       CLOUDY    45  45 100 S6        29.96S FOG
TOMAHAWK       FOG       44  44  97 CALM      29.98F VSB 1
MEDFORD        FOG       45  45 100 S7        29.98S VSB 1/4
MERRILL        FOG       44  44 100 S3        29.99F VSB 1
$$

WIZ029-030-035-036-043>047-241600-
CENTRAL WISCONSIN

CITY           SKY/WX    TMP DP  RH WIND       PRES   REMARKS
WAUSAU         FOG       45  45 100 SE7       29.98F VSB 1/4
MOSINEE        FOG       45  45 100 SE6       30.01S VSB 1/8
MARSHFIELD     FOG       47  46  97 S8        30.00S VSB 1/4
STEVENS POINT  FOG       44  44 100 S3        30.02R VSB 1/2
WAUPACA        FOG       49  48  96 S3        30.02S VSB 1/2
WAUTOMA        FOG       48  48 100 SW6       30.03S VSB 3/4
WISC RAPIDS    FOG       47  46  97 S5        30.02F VSB 1/2
CAMP DOUGLAS   CLOUDY    48  48 100 S6        30.01S FOG
$$

WIZ011>013-019>022-031-037>040-048>050-241600-
NORTHEAST WISCONSIN

CITY           SKY/WX    TMP DP  RH WIND       PRES   REMARKS
ANTIGO         FOG       44  44 100 SW3       30.00S VSB 1/4
SHAWANO        CLOUDY    48  47  95 SW3       30.02F FOG
OCONTO         CLOUDY    47  47 100 W7        30.02R
STURGEON BAY   CLOUDY    48  45  87 W8        30.02R
GREEN BAY      CLOUDY    48  47  96 VRB6      30.03S FOG
MANITOWOC      CLOUDY    50  48  93 W5        30.04R
APPLETON         N/A     46  46 100 S6        30.02F FOG
CLINTONVILLE   CLOUDY    46  46 100 SW5       30.02S FOG
OSHKOSH        CLOUDY    49  47  93 S7        30.02F
$$

WIZ032>034-041-042-053>061-241600-
SOUTHWEST WISCONSIN

CITY           SKY/WX    TMP DP  RH WIND       PRES   REMARKS
LA CROSSE      CLOUDY    52  51  97 SE9       29.99S FOG
SPARTA         CLOUDY    50  49  98 S5        30.01F FOG
VIROQUA        CLOUDY    50  50 100 SE7       30.00F VSB<1/4
BOSCOBEL       CLOUDY    53  51  93 S3        30.03R FOG
PRAIRIE DU CHI CLOUDY    53  52  96 E3        30.01S FOG
PLATTEVILLE    CLOUDY    53  52  97 S8        30.05R VSB 1/4
$$

WIZ056-057-062-063-064-067-068-241600-
SOUTH CENTRAL WISCONSIN

CITY           SKY/WX    TMP DP  RH WIND       PRES   REMARKS
REEDSBURG      CLOUDY    47  47 100 S7        30.03R FOG
BARABOO/DELLS  FOG       47  46  96 S3        30.03R VSB 1/4
LONE ROCK      CLOUDY    53  49  86 CALM      30.04R FOG
MINERAL POINT  FOG       52  50  93 S5        30.04R VSB<1/4
MADISON        FOG       50  48  93 S8        30.04S VSB 3/4
MIDDLETON      CLOUDY    50  50 100 SW5       30.05R VSB 3/4
WATERTOWN      CLOUDY    49  49 100 S3        30.04F FOG
MONROE         FOG       50  48  93 S7        30.04F VSB<1/4
JANESVILLE     NOT AVBL
$$

WIZ051-052-058>065-066-070>072-241600-
SOUTHEAST WISCONSIN

CITY           SKY/WX    TMP DP  RH WIND       PRES   REMARKS
MILWAUKEE      CLOUDY    51  48  89 W6        30.06R
WAUKESHA       CLOUDY    46  46 100 W5        30.06S FOG
MILWAUKEE/TIMM CLOUDY    48  46  93 W7        30.06S FOG
RACINE         CLOUDY    52  49  89 SW5       30.07S
BURLINGTON     CLOUDY    48  48  97 SW5       30.05F
KENOSHA        CLOUDY    50  49  96 W3        30.06S FOG
FOND DU LAC    CLOUDY    49  46  90 SW6       30.04S
SHEBOYGAN      CLOUDY    50  47  89 W6        30.04S
WEST BEND      CLOUDY    46  45  93 SW3       30.05S
JUNEAU         CLOUDY    47  47  99 SE3       30.05S FOG
$$

LSZ147-162-241600-
LAKE SUPERIOR

STATION/POSITION TIME  TEMP    WIND        PRES    WAVE
                       AIR SEA DIR/SP/G            HT/PER
                 (UTC) (F)     (DEG/KT/KT) (MB)    (FT/S)
W MID LAKE BUOY  1450   47 46  180/  6/  6 1012.1F
DEVILS ISLAND    1500   50     220/  3/  4 1012.1S
PORT WING        1400   52     210/  6/ 10 1011.9F
SAXON HARBOR     1400   54     190/  9/ 14 1011.9F
$$

LMZ867-665-643>646-241600-
LAKE MICHIGAN

STATION/POSITION TIME  TEMP    WIND        PRES    WAVE
                       AIR SEA DIR/SP/G            HT/PER
                 (UTC) (F)     (DEG/KT/KT) (MB)    (FT/S)
CHAMBERS ISLAND  1400   48     200/  3/  7 1015.9F
N MID LAKE BUOY  1450   50 51  220/  8/ 10 1015.9F   2/ 5
NORTHPORT PIER   1400   49     190/  3/  6 1015.6F
SISTER BAY       1428          210/  9/ 10   N/A
ALGOMA LAKESHORE 1356          230/  5/  6   N/A
KEWAUNEE LAKESHO 1500   49     220/  7/  9 1015.6F
SHEBOYGAN LAKESH 1500   50 50  290/  6/  7 1017.7S
PORT WASHINGTON  1440   50     290/  4/  7 1018.3S
ATWATER BUOY     1500   49     300/  4/  6 1018.7S
MILWAUKEE LAKESH 1500   50     290/  6/  8   N/A
S MID LAKE BUOY  1450   52 54  280/  6/  8 1018.0F   1
KENOSHA   LAKESH 1500   50     260/  5/  8 1017.9S
$$

TC  - TEMPERATURE IN CELSIUS
VSB - VISIBILITY IN STATUTE MILES
WCI - WIND CHILL INDEX
HX  - HEAT INDEX




USA.gov is the U.S. government's official web portal to all federal, state and local government web resources and services.